{"data":{"norad_id":46758,"intl_designator":"2020-074V","name":"STARLINK-1928","alt_names":[],"object_type":"PAYLOAD","status":"ACTIVE","operator":null,"country":"US","launch_date":"2020-10-24","launch_site_code":"AFETR","launch_vehicle":null,"mission":null,"orbit_class":"UNKNOWN","rcs_meters":null,"size_class":null,"mass_kg":null,"dimensions":null,"purposes":["comms"],"wikipedia_slug":null,"has_3d_model":false,"image_url":null,"decayed_at":null,"tle_current":{"epoch":"2026-06-25T01:52:02.845344Z","epoch_age_seconds":7575186,"freshness":"OLD","line1":"1 46758U 20074V   26176.07781071  .08116360  12348-4  49748-3 0  9998","line2":"2 46758  53.0193 102.9547 0007931 247.7817 112.2389 16.41271005314211","mean_motion":16.41271005,"eccentricity":0.0007931,"inclination_deg":53.0193,"raan_deg":102.9547,"arg_perigee_deg":247.7817,"mean_anomaly_deg":112.2389,"bstar":0.00049748,"rev_number":31421,"period_min":87.736881697974,"perigee_km":157.2363209723,"apogee_km":167.61095825886,"semimajor_km":6540.5606396156,"source":"CELESTRAK","updated_at":"2026-06-25T09:00:30.445991Z"}}}